Location: Newark
(20.0000°S, 47.0000°E)
Time: 12:31:00
(UTC+00:00)

N. Korean satellite - Pass Details

Date: 28 March 2019
Orbit: 458 x 508 km, 97.2° (Epoch: 25 April)

Event Time Altitude Azimuth Distance (km) Brightness Sun altitude
Rises 15:36:24 0° 195° (SSW) 2,545 10.4 -10.3°
Reaches altitude 10° 15:39:12 10° 219° (SW) 1,646 9.8 -10.9°
Maximum altitude 15:41:13 15° 254° (WSW) 1,367 10.1 -11.4°
Drops below altitude 10° 15:43:13 10° 289° (WNW) 1,620 10.4 -11.9°
Sets 15:45:56 0° 314° (NW) 2,478 10.9 -12.5°
